Weather History for WIBB - March, 2013

Change the Weather History Date:

Thursday, March 7, 2013

  Actual Average Record
Temperature  
Mean Temperature 84 °F -  
Max Temperature 94 °F - - ()
Min Temperature 75 °F - - ()
Cooling Degree Days 20    
Growing Degree Days 34 (Base 50)    
Moisture  
Dew Point 75 °F    
Average Humidity 69    
Maximum Humidity 100    
Minimum Humidity 44    
Precipitation  
Precipitation 0.00 in - - ()
Sea Level Pressure  
Sea Level Pressure 29.81 in    
Wind  
Wind Speed 1 mph ()    
Max Wind Speed 9 mph    
Max Gust Speed -    
Visibility 5.2 miles    
Events      
T = Trace of Precipitation, MM = Missing Value Source: Averaged Metar Reports

Daily Weather History Graph

Daily Weather History Graph

Search for Another Location

Airport or City:

Trip Planner

Search our weather history database for the weather conditions in past years. The results will help you decide how hot, cold, wet, or windy it might be!

Date:

Astronomy

Mar. 07, 2013 Rise Set
Actual Time 6:22 AM WIB 6:28 PM WIB
Civil Twilight 6:01 AM WIB 6:49 PM WIB
Nautical Twilight 5:37 AM WIB 7:13 PM WIB
Astronomical Twilight 5:13 AM WIB 7:37 PM WIB
Moon 2:03 AM WIB (3/7) 2:29 PM WIB (3/7)
Length of Visible Light 12h 47m
Length of Day
12h 06m
Waning Crescent, 25% of the Moon is Illuminated
Mar 7
Waning Crescent
Mar 12
New
Mar 20
First Quarter
Mar 27
Full
Apr 3
Last Quarter

Hourly Weather History & Observations

Time (WIB) Temp. Heat Index Dew Point Humidity Pressure Visibility Wind Dir Wind Speed Gust Speed Precip Events Conditions
4:00 AM 78 °F - 74 °F 86% 29.81 in 5 mi Calm Calm - -   Partly Cloudy
6:00 AM 77.0 °F - 75.2 °F 94% 29.80 in 5.0 mi Calm Calm - N/A   Unknown
7:00 AM 76 °F - 75 °F 94% 29.84 in 5 mi Calm Calm - -   Partly Cloudy
7:00 AM 75.2 °F - 75.2 °F 100% 29.83 in 5.0 mi Calm Calm - N/A   Scattered Clouds
8:00 AM 78.8 °F - 75.2 °F 89% 29.83 in 5.0 mi Calm Calm - N/A   Scattered Clouds
9:00 AM 82.4 °F 89.5 °F 75.2 °F 79% 29.86 in 5.6 mi North 5.8 mph - N/A   Scattered Clouds
10:00 AM 87 °F - 76 °F 62% 29.88 in 6 mi NE 5.8 mph - -   Partly Cloudy
10:00 AM 86.0 °F 95.1 °F 75.2 °F 70% 29.86 in 6.2 mi NE 5.8 mph - N/A   Scattered Clouds
11:00 AM 89.6 °F 98.2 °F 73.4 °F 59% 29.86 in 6.2 mi North 9.2 mph - N/A   Scattered Clouds
12:00 PM 89.6 °F 96.2 °F 71.6 °F 55% 29.83 in 6.2 mi Calm Calm - N/A   Scattered Clouds
1:00 PM 93 °F - 73 °F 44% 29.82 in 6 mi Calm Calm - -   Partly Cloudy
1:00 PM 93.2 °F 102.4 °F 73.4 °F 52% 29.80 in 6.2 mi Calm Calm - N/A   Scattered Clouds
2:00 PM 95.0 °F 103.2 °F 71.6 °F 47% 29.77 in - North - - N/A   Mostly Cloudy
3:00 PM - - - N/A% - 6.2 mi Calm Calm - N/A   Mostly Cloudy
4:00 PM 90 °F - 74 °F 51% 29.75 in 5 mi Calm Calm - -   Partly Cloudy
4:00 PM 89.6 °F 98.2 °F 73.4 °F 59% 29.74 in 5.0 mi Calm Calm - N/A   Scattered Clouds
5:00 PM 93.2 °F 102.4 °F 73.4 °F 52% 29.74 in 5.0 mi North 6.9 mph - N/A   Scattered Clouds
6:00 PM 89.6 °F 98.2 °F 73.4 °F 59% 29.74 in 4.3 mi North 4.6 mph - N/A   Scattered Clouds
7:00 PM 86 °F - 76 °F 64% 29.78 in 5 mi Calm Calm - -   Partly Cloudy
7:00 PM 86.0 °F 95.1 °F 75.2 °F 70% 29.77 in 4.3 mi Calm Calm - N/A   Scattered Clouds
8:00 PM 84.2 °F 94.1 °F 77.0 °F 79% 29.80 in 5.0 mi Calm Calm - N/A   Scattered Clouds
9:00 PM 84.2 °F 94.1 °F 77.0 °F 79% 29.83 in 4.3 mi Calm Calm - N/A   Scattered Clouds
10:00 PM 83 °F - 76 °F 74% 29.84 in 4 mi Calm Calm - -   Partly Cloudy
10:00 PM 82.4 °F 89.5 °F 75.2 °F 79% 29.83 in 4.3 mi Calm Calm - N/A   Scattered Clouds